Location: Unspecified
(0.0000°N, 0.0000°E)
Time: 21:52:08
(UTC+00:00)

ISS - Pass Details

Date: 18 January 2018
Orbit: 402 x 407 km, 51.6° (Epoch: 23 January)

Event Time Altitude Azimuth Distance (km) Brightness Sun altitude
Rises 19:50:16 0° 247° (WSW) 2,305 1.5 -23.3°
Reaches altitude 10° 19:53:13 10° 277° (W) 1,443 -0.2 -24.0°
Maximum altitude 19:54:46 13° 306° (NW) 1,281 -1.0 -24.3°
Enters shadow 19:55:11 13° 314° (NW) 1,292 -1.0 -24.4°
